User: anonymous   Login
Location: Unspecified
(0.0000°N, 0.0000°E)
Time: 03:33:58
(UTC+00:00)
Language:

NOSS 2-1 (C) - Orbit

View from above orbital plane
View from above orbital plane
View from above satellite
View from above satellite

Ground track
Ground track

The orbit data is extracted from the following two-line orbital elements,

1 20691U 90050C   17319.01642635 0.00000000  00000-0  00000-0 0    03
2 20691  63.3400 162.6622 0805000  33.2614 326.7386 13.41746017    02
Epoch (UTC): 15 November 2017 00:23:39
Eccentricity: 0.0805000
inclination: 63.3400°
perigee height: 500 km
apogee height: 1705 km
right ascension of ascending node: 162.6622°
argument of perigee: 33.2614°
revolutions per day: 13.41746017
mean anomaly at epoch: 326.7386°
orbit number at epoch: 0

The dashed part of the orbit path shows where the satellite is in the earth's shadow,  

DLR